Location: Trebic
(49.2170°N, 15.8830°E)
Time: 03:25:32
(UTC+02:00)

Transit 2A Rocket - Pass Details

Date: 29 July 2019
Orbit: 590 x 913 km, 66.7° (Epoch: 21 August)

Event Time Altitude Azimuth Distance (km) Brightness Sun altitude
Rises 10:21:03 0° 324° (NW) 3,176 7.8 45.6°
Reaches altitude 10° 10:23:32 10° 326° (NW) 2,197 7.1 45.9°
Maximum altitude 10:28:30 79° 53° (NE) 682 5.7 46.6°
Drops below altitude 10° 10:33:01 10° 141° (SE) 2,004 8.1 47.3°
Sets 10:35:12 0° 142° (SE) 2,875 8.6 47.6°
